Regional Weather Roundup
Issued by NWS Goodland, KS

Home | Current Version | Previous Version | Graphics & Text | Print | Product List | Glossary On
Versions: 1 2 3 4 5 6 7 8 9 10 11 12 13 14 15 16 17 18 19 20 21 22 23 24 25 26 27 28 29 30 31 32 33 34 35 36 37 38 39 40 41 42 43 44 45 46 47 48 49 50
000
ASUS43 KGLD 011759
RWRGLD

GOODLAND FORECAST AREA HOURLY WEATHER ROUNDUP
NATIONAL WEATHER SERVICE GOODLAND KS
1100 AM MST SUN FEB 01 2015

...OFFICIAL OBSERVATIONS...

CITY           SKY/WX    TMP DP  RH WIND       PRES   REMARKS
GOODLAND KS    FLURRIES  18  12  77 N24G33    30.22R WCI   0
HILL CITY KS   PTSUNNY   17   9  70 NW31G40   30.23R WCI  -3
IMPERIAL NEB   PTSUNNY   13   4  67 N32G38    30.27R WCI  -9
MCCOOK NEB     PTSUNNY   14   5  67 NW28G33   30.27R WCI  -6
AKRON CO       CLOUDY    17  13  84 N10       30.19S WCI   5
BURLINGTON CO  FLURRIES  18  11  74 N26G37    30.20R WCI  -1
LIMON CO       PTSUNNY   21  14  74 N12       30.16S WCI   9
$$

...UNOFFICIAL OBSERVATIONS...

CITY           SKY/WX    TMP DP  RH WIND       PRES   REMARKS
COLBY KS       PTSUNNY   18  12  79 NW28G45   30.20S WCI  -1
GOVE KS          N/A     19  32 100 MISG        N/A
NORTON KS      CLOUDY    12   3  67 NW25G37   30.22S WCI  -8
KIT CARSON CO    N/A     25  18  75 MISG        N/A
YUMA CO          N/A     17  11  77 N15G24      N/A  WCI   2
$$


USA.gov is the U.S. government's official web portal to all federal, state and local government web resources and services.